{"data":{"norad_id":68950,"epoch":"2026-05-24T12:24:15.217056Z","epoch_age_seconds":119836,"freshness":"FRESH","line1":"1 68950U 26098AH  26144.51684279  .00018424  00000+0  52853-3 0  9996","line2":"2 68950  51.8764 181.6239 0003763  63.4698 296.6674 15.35913839  3714","mean_motion":15.35913839,"eccentricity":0.0003763,"inclination_deg":51.8764,"raan_deg":181.6239,"arg_perigee_deg":63.4698,"mean_anomaly_deg":296.6674,"bstar":0.00052853,"rev_number":371,"period_min":93.755259145106,"perigee_km":455.63497129651,"apogee_km":460.78000415797,"semimajor_km":6836.3444877272,"source":"CELESTRAK","updated_at":"2026-05-25T13:38:08.799289Z"}}